STARLINK-4723, 53797

Orbit data source: Space-Track

STARLINK-4723, 53797 is a payload satellite owned by SpaceX/Seattle (US) in LEO that was launched on Sun, 11 Sep 2022 UTC via an FALCON 9 launch vehicle from the Air Force Eastern Test Range (AFETR). Payload-class satellites include a variety of spacecraft equipped with specific instruments for various scientific and technological missions. These include communications satellites like Starlink; space stations such as the ISS; scientific satellites like the Hubble; Earth observation satellites from companies like Planet Labs, Umbra, and HawkEye 360; GPS; miniature CubeSats for education and research; and military/defense satellites.

Loading next visibility...
Identifier
53797, 2022-111AA
Orbit
LEO
Last TLE update
8 hours ago
Origin
Manufacturer
SpaceX/Seattle
Mission
Operational Commercial Communications
Bus & Motor
STARLINK, Unknown motor
Mass
305 kg wet, ~290 kg dry
Launch date (UTC)
2022-09-11 (3 years ago)
Launch vehicle
FALCON 9
Launch site
Air Force Eastern Test Range (AFETR)
Object type
Payload
Rocket body
Debris
Shape & HBR
Box + 1 Pan, 8.86 m
Radar Cross Section
13.562 m², Large (>1 m²)

Expand to show TLE details & history

TLE from 8 hours ago
0 STARLINK-4723
1 53797U 22111AA  25186.62307309 -.00001269  00000-0 -61685-4 0  9990
2 53797  53.2179 302.8108 0001286  90.3760 269.7379 15.08833108156387
Epoch: 2025-07-05T14:57Z
TLE epoch observation values (Epoch: 2025-07-05T14:57:13.514Z)
Latitude
-0.00009°
Longitude
154.64596°
Altitude
540.666 km
Speed
7.593 km/s
True Right ascension
20h 11m 14s
True Declination
0° 00' 00"
Sunlit
Object was in full shadow at epoch
Visualization orbit readout
Latitude
4.1645°
Longitude
156.25792°
Altitude
540.159 km
Speed
7.594 km/s
Apparent Right ascension
21h 21m 10s
Apparent Declination
-17° 44' 58"
Sunlit
Object is in full shadow
Visualization observer readout
Local Sidereal Time
10:51:47
Azimuth
48.015° ENE
Elevation
-60.427°
Doppler factor
1
Orbital elements
Apogee altitude
540.899 km
Perigee altitude
539.12 km
Semi-major axis
6,918.146 km
Eccentricity
0.00013
Inclination
53.2179°
RAAN
302.8108°
Arg. of periapsis
90.376°
True anomaly
Unknown
Mean anomaly
269.7379°
Eccentric anomaly
Unknown
Mean motion
3.77189 °/min
Orbital period
95.44 mins
BSTAR
-0.000061685
Loading maneuver chart data...
Loading SW <> Apogee altitude chart data...
Loading historical data...
Loading historical data...
Loading historical data...
Loading historical data...
Loading historical data...
Loading historical data...
Loading historical data...

STARLINK-4723 Visibility forecast

Observer location: undefined°, undefined°

Span
Click to sort rows by Start time (UTC) header in descending order
Start Az.
Max El. time (UTC)
Max El. Az.
Max El.
End time (UTC)
End Az.
7 mins2025-07-06 10:11:31.497Z216.767° SW2025-07-06 10:15:31.497Z111.867° ESE41.216°2025-07-06 10:18:31.497Z57.318° ENE
5 mins2025-07-06 11:52:31.497Z288.574° WNW2025-07-06 11:54:31.497Z326.14° NNW22.496°2025-07-06 11:57:31.497Z24.158° NE
4 mins2025-07-06 15:14:31.497Z350.187° N2025-07-06 15:16:31.497Z25.767° NE16.176°2025-07-06 15:18:31.497Z56.704° ENE
6 mins2025-07-06 16:53:31.497Z321.591° NNW2025-07-06 16:56:31.497Z68.274° E39.602°2025-07-06 16:59:31.497Z116.053° SE
4 mins2025-07-06 18:33:31.497Z261.069° W2025-07-06 18:35:31.497Z224.117° SW17.195°2025-07-06 18:37:31.497Z192.575° SSW
|